[[{"header":{"parameterUnit":"m.s-1","parameterCategory":2,"la1":30.2991,"la2":30.254,"lo1":-89.0895,"lo2":-89.0444,"dy":0.0017,"dx":0.0017,"nx":28,"ny":28,"refTime":"2023-11-13T09:00:00:Z","depth":"0","parameterNumber":2,"parameterNumberName":"U-component_of_CURRENTS"},"data":[0,0,0,0,0,0,0,0,0,0,0,0,0,0,0,0,0,0,0,0,0,0,0,0,0,0,0,0,0,0,0,0,0,0,0,0,0,0,0,0,0,0,0,0,0,0,0,0,0,0,0,0,0,0,0,0,0,0,0.2888,0.2888,0,0.29,0.29,0.29,0.2891,0.289,0.289,0.289,0.2879,0.2879,0.2879,0,0,0,0,0,0,0,0,0,0,0,0,0,0.2856,0.2856,0.2888,0.2888,0.2889,0.29,0.29,0.29,0.2891,0.289,0.289,0.289,0.2879,0.2879,0.2879,0,0,0,0,0,0,0,0,0,0,0,0,0,0.2867,0.2857,0.2888,0.2887,0.2887,0.29,0.29,0.29,0.2891,0.289,0.289,0.289,0.2879,0.2879,0.2879,0.2885,0,0,0.2878,0.2878,0,0,0,0,0,0,0,0,0.2867,0.2868,0.2886,0.2887,0.2887,0.2895,0.2885,0.2895,0.2891,0.2887,0.289,0.2889,0.2884,0.2883,0.2884,0.2885,0.2884,0.2878,0.2878,0.2878,0.2878,0,0,0,0,0,0,0,0.2866,0.2868,0.2891,0.2887,0.2887,0.2886,0.2887,0.2887,0.2885,0.2887,0.2887,0.2892,0.2883,0.2884,0.2884,0.2884,0.2878,0.2878,0.2878,0.2878,0.2925,0.2926,0,0,0,0,0,0,0.2869,0.2867,0.289,0.2891,0.2878,0.2887,0.2888,0.2891,0.2886,0.2885,0.2892,0.2891,0.2884,0.2884,0.2883,0.2919,0.2878,0.2878,0.2878,0.2924,0.2925,0.2927,0,0,0,0,0,0,0.2868,0.2871,0.289,0.2881,0.2884,0.2888,0.2892,0.2892,0.2899,0.289,0.2889,0.29,0.2884,0.2883,0.2895,0.2918,0.2878,0.2878,0.2922,0.2924,0.2926,0.2973,0,0,0,0,0,0,0.2867,0.287,0.2873,0.2881,0.2884,0.2907,0.2892,0.2892,0.2903,0.2902,0.2897,0.2895,0.2884,0.2895,0.2895,0.2917,0.2878,0.292,0.2923,0.2925,0.297,0.2977,0.2982,0,0,0,0,0,0.2866,0.2872,0.2873,0.2876,0.2889,0.2908,0.291,0.2909,0.2904,0.2913,0.2911,0.2895,0.2911,0.2896,0.2895,0.2918,0.2919,0.2922,0.2925,0.2967,0.2975,0.2982,0,0,0,0,0,0,0.2855,0.2872,0.2874,0.2883,0.2899,0.2907,0.2915,0.2917,0.2922,0.2921,0.2908,0.2907,0.2929,0.2918,0.2902,0.294,0.2914,0.2917,0.2947,0.2954,0.296,0.297,0.2878,0,0,0,0,0,0.2856,0.2867,0.2884,0.2892,0.2903,0.2911,0.2919,0.2923,0.2929,0.2931,0.2926,0.2928,0.294,0.2942,0.2947,0.2963,0.2974,0.2979,0.2985,0.299,0.3,0.3048,0.3059,0.2936,0.2936,0.2936,0,0,0.2853,0.2865,0.287,0.2892,0.2903,0.2919,0.2915,0.2934,0.2947,0.2929,0.2943,0.2949,0.295,0.2972,0.2981,0.2965,0.3031,0.2994,0.2999,0.3005,0.3052,0.3064,0.3075,0.2938,0.2938,0.2938,0,0,0.2856,0.2868,0.2879,0.2897,0.2922,0.293,0.2939,0.2955,0.2964,0.2982,0.2979,0.3001,0.3004,0.3017,0.3023,0.3066,0.3064,0.3068,0.3103,0.315,0.316,0.317,0.3197,0.3208,0.3068,0.3068,0.3068,0,0.2851,0.2868,0.2886,0.2905,0.2923,0.2937,0.2958,0.297,0.2986,0.3009,0.2992,0.3035,0.3028,0.3075,0.3087,0.3081,0.3102,0.3073,0.3158,0.3168,0.3177,0.3202,0.3214,0.3071,0.307,0.307,0.307,0,0.2863,0.2881,0.2893,0.292,0.2943,0.2966,0.2992,0.3014,0.3026,0.3043,0.3094,0.3095,0.3125,0.3127,0.3115,0.3181,0.3174,0.3163,0.3139,0.3192,0.3215,0.3227,0.3074,0.3073,0.3073,0.3072,0,0,0.2837,0.2891,0.2893,0.2911,0.2958,0.2972,0.3016,0.3062,0.3096,0.3117,0.3168,0.319,0.3204,0.3213,0.3213,0.3245,0.3314,0.3231,0.3232,0.3257,0.3415,0.3402,0.3413,0.3324,0.3327,0.3328,0.3404,0,0.284,0.2875,0.2908,0.2939,0.2961,0.3005,0.3042,0.3088,0.313,0.3179,0.3214,0.3252,0.3234,0.3253,0.3289,0.3314,0.3349,0.3294,0.336,0.3362,0.3344,0.3427,0.3328,0.3387,0.3416,0.3417,0.3419,0,0.2833,0.2863,0.2898,0.2955,0.297,0.2992,0.3069,0.3106,0.3192,0.3229,0.3295,0.3322,0.3385,0.3351,0.3438,0.3408,0.3418,0.3428,0.3431,0.3412,0.3372,0.334,0.3407,0.3352,0.3437,0.3435,0.3434,0,0.2793,0.2849,0.2877,0.2896,0.2964,0.2996,0.3035,0.3122,0.3178,0.3268,0.3325,0.3398,0.3446,0.3483,0.3518,0.3484,0.3608,0.356,0.3559,0.3557,0.3482,0.347,0.3502,0.3623,0.3623,0.3622,0.3622,0,0.2775,0.2792,0.2857,0.2868,0.2904,0.2968,0.3025,0.3083,0.3195,0.3258,0.3345,0.3416,0.3485,0.3564,0.3564,0.362,0.3654,0.3591,0.3591,0.3495,0.3484,0.3437,0.3399,0.3625,0.3625,0.3624,0.3624,0,0.2717,0.2762,0.2788,0.2859,0.2881,0.2902,0.3009,0.3057,0.3175,0.3269,0.3305,0.3461,0.356,0.3631,0.3703,0.3689,0.3635,0.3727,0.3605,0.359,0.3507,0.3473,0.3369,0.3256,0.3729,0.373,0.373,0,0.269,0.27,0.2759,0.2774,0.2803,0.2856,0.2894,0.3018,0.3087,0.328,0.3323,0.3484,0.3573,0.3715,0.3734,0.3775,0.3652,0.3681,0.3594,0.3518,0.3482,0.3327,0.3226,0.3507,0.3505,0.3504,0.3503,0,0.2637,0.2656,0.2679,0.2711,0.2741,0.278,0.2855,0.291,0.3054,0.3166,0.331,0.3409,0.3583,0.3613,0.3704,0.3701,0.3522,0.3655,0.3614,0.3354,0.3151,0.3036,0.3431,0.3492,0.3493,0.3494,0.3494,0.3495,0.2588,0.2586,0.2616,0.2636,0.2665,0.2687,0.2688,0.2793,0.289,0.3014,0.319,0.33,0.3462,0.3595,0.3572,0.3523,0.3456,0.3421,0.3401,0.3261,0.3107,0.3479,0.3519,0.352,0.3521,0.3522,0.3523,0,0.2516,0.2525,0.2544,0.2549,0.2535,0.2589,0.2641,0.2633,0.2686,0.2854,0.2972,0.3175,0.3255,0.3354,0.3424,0.3308,0.3111,0.321,0.2973,0.2893,0.3277,0.3227,0.316,0.316,0.3161,0.3161,0.3161,0.3161,0.2481,0.246,0.2468,0.2412,0.2415,0.2361,0.2361,0.2378,0.2468,0.2584,0.2708,0.2869,0.3171,0.3335,0.3291,0.3189,0.2914,0.2785,0.2741,0.3048,0.3065,0.3081,0.3026,0.2919,0.2919,0.2232,0.2227,0.2223]},{"header":{"parameterUnit":"m.s-1","parameterCategory":2,"la1":30.2991,"la2":30.254,"lo1":-89.0895,"lo2":-89.0444,"dy":0.0017,"dx":0.0017,"nx":28,"ny":28,"refTime":"2023-11-13T09:00:00:Z","depth":"0","parameterNumber":3,"parameterNumberName":"V-component_of_CURRENTS"},"data":[0,0,0,0,0,0,0,0,0,0,0,0,0,0,0,0,0,0,0,0,0,0,0,0,0,0,0,0,0,0,0,0,0,0,0,0,0,0,0,0,0,0,0,0,0,0,0,0,0,0,0,0,0,0,0,0,0,0,-0.0078,-0.0079,0,-0.0149,-0.015,-0.0151,-0.0198,-0.0198,-0.0199,-0.0199,-0.0285,-0.0287,-0.0289,0,0,0,0,0,0,0,0,0,0,0,0,0,-0.0031,-0.0031,-0.0078,-0.0079,-0.008,-0.0149,-0.015,-0.0151,-0.0198,-0.0198,-0.0199,-0.0199,-0.0285,-0.0287,-0.029,0,0,0,0,0,0,0,0,0,0,0,0,0,-0.0073,-0.0031,-0.0078,-0.0111,-0.0114,-0.0149,-0.015,-0.0152,-0.0198,-0.0198,-0.0199,-0.0199,-0.0284,-0.0287,-0.029,-0.0303,0,0,-0.03,-0.0301,0,0,0,0,0,0,0,0,-0.007,-0.0074,-0.0105,-0.0108,-0.0112,-0.0164,-0.0165,-0.0203,-0.0198,-0.0168,-0.0199,-0.0199,-0.0245,-0.0251,-0.0266,-0.0307,-0.0311,-0.03,-0.0302,-0.0303,-0.0304,0,0,0,0,0,0,0,-0.0067,-0.0072,-0.0108,-0.0106,-0.011,-0.0138,-0.0144,-0.0173,-0.0205,-0.017,-0.0174,-0.0179,-0.0247,-0.0262,-0.0268,-0.0312,-0.03,-0.0303,-0.0305,-0.0306,-0.0365,-0.0364,0,0,0,0,0,0,-0.0053,-0.0069,-0.0105,-0.011,-0.009,-0.0138,-0.0145,-0.0148,-0.0204,-0.0213,-0.0179,-0.0181,-0.0257,-0.0264,-0.0271,-0.0274,-0.0303,-0.0306,-0.0308,-0.0365,-0.0364,-0.0364,0,0,0,0,0,0,-0.0052,-0.0055,-0.0102,-0.009,-0.0098,-0.0138,-0.0142,-0.0149,-0.0161,-0.0211,-0.022,-0.0182,-0.0257,-0.0267,-0.029,-0.0279,-0.0307,-0.031,-0.0365,-0.0365,-0.0364,-0.0291,0,0,0,0,0,0,-0.005,-0.0054,-0.0051,-0.0089,-0.0098,-0.0113,-0.0142,-0.0151,-0.0164,-0.0167,-0.0216,-0.0225,-0.0258,-0.0285,-0.0293,-0.0284,-0.0313,-0.0366,-0.0365,-0.0364,-0.0294,-0.0288,-0.0283,0,0,0,0,0,-0.0048,-0.0038,-0.005,-0.0055,-0.0092,-0.0112,-0.0119,-0.0151,-0.0163,-0.0163,-0.0197,-0.0223,-0.0287,-0.0287,-0.0297,-0.0288,-0.0366,-0.0365,-0.0364,-0.0296,-0.0289,-0.0283,0,0,0,0,0,0,-0.0016,-0.0043,-0.0057,-0.0056,-0.0079,-0.012,-0.0122,-0.0143,-0.017,-0.0172,-0.022,-0.0231,-0.0248,-0.0278,-0.0277,-0.0304,-0.0331,-0.0332,-0.0275,-0.0269,-0.0264,-0.0244,-0.0315,0,0,0,0,0,-0.0007,-0.0006,-0.0038,-0.0037,-0.0044,-0.0081,-0.0093,-0.0113,-0.0142,-0.0154,-0.0189,-0.0224,-0.0254,-0.0268,-0.03,-0.0312,-0.0343,-0.0313,-0.0308,-0.0303,-0.0293,-0.0332,-0.0329,-0.0362,-0.0362,-0.0362,0,0,0.0005,-0.0009,-0.001,-0.0031,-0.005,-0.005,-0.0089,-0.0099,-0.0099,-0.0159,-0.0169,-0.0208,-0.0254,-0.0269,-0.0279,-0.0291,-0.031,-0.0302,-0.0297,-0.0291,-0.0331,-0.0328,-0.0325,-0.0361,-0.0361,-0.0361,0,0,0.0034,0.0018,0.003,0.0018,-0.0003,-0.0023,-0.0021,-0.0056,-0.0071,-0.0089,-0.013,-0.016,-0.0205,-0.0234,-0.0255,-0.0239,-0.0282,-0.0248,-0.0202,-0.024,-0.0237,-0.0235,-0.0267,-0.0268,-0.0243,-0.0243,-0.0243,0,0.005,0.0059,0.003,0.004,0.0038,-0.0004,0.0011,-0.001,-0.0048,-0.0054,-0.0081,-0.0144,-0.0188,-0.0203,-0.0201,-0.0226,-0.0251,-0.0221,-0.0231,-0.023,-0.023,-0.0263,-0.0265,-0.0239,-0.0239,-0.024,-0.024,0,0.0088,0.0094,0.0102,0.0102,0.0096,0.0102,0.0074,0.0069,0.0043,0.0016,-0.0008,-0.0072,-0.0106,-0.0128,-0.0163,-0.0173,-0.0194,-0.0221,-0.0244,-0.0222,-0.0258,-0.0262,-0.0234,-0.0235,-0.0236,-0.0237,0,0,0.013,0.0129,0.0134,0.0148,0.0131,0.0136,0.0141,0.0134,0.0148,0.0094,0.01,0.0031,-0.0005,-0.0031,-0.008,-0.0116,-0.0143,-0.0159,-0.0163,-0.0183,-0.0218,-0.0221,-0.0227,-0.017,-0.017,-0.017,-0.0243,0,0.017,0.0207,0.0191,0.0229,0.0249,0.0221,0.0231,0.022,0.0197,0.0191,0.0122,0.0101,0.0034,0.0019,-0.0027,-0.0111,-0.015,-0.012,-0.0243,-0.0246,-0.0246,-0.023,-0.0202,-0.0263,-0.0248,-0.0248,-0.0249,0,0.0217,0.0237,0.0283,0.0304,0.0311,0.0324,0.0346,0.0352,0.0329,0.0308,0.0273,0.0215,0.0158,0.0093,-0.0035,-0.0009,-0.0104,-0.0177,-0.0182,-0.0212,-0.0257,-0.0285,-0.0272,-0.0441,-0.0256,-0.0255,-0.0255,0,0.0277,0.0304,0.0347,0.0354,0.0369,0.0387,0.0397,0.0391,0.0416,0.0388,0.04,0.0309,0.0276,0.0148,-0.0004,-0.002,-0.0145,-0.0191,-0.0284,-0.0285,-0.0299,-0.03,-0.0456,-0.0283,-0.0283,-0.0283,-0.0283,0,0.033,0.0366,0.0381,0.0408,0.0468,0.0453,0.0514,0.0509,0.0519,0.0563,0.0471,0.0485,0.0288,0.0192,0.0036,-0.0123,-0.0117,-0.0268,-0.0301,-0.0272,-0.027,-0.0449,-0.0558,-0.0286,-0.0285,-0.0284,-0.0284,0,0.0387,0.0395,0.0451,0.0481,0.05,0.0546,0.0601,0.0643,0.0641,0.0698,0.0694,0.0617,0.0496,0.0301,0.0093,-0.0055,-0.0321,-0.0283,-0.023,-0.0255,-0.0502,-0.0606,-0.0805,-0.089,-0.0398,-0.0399,-0.0399,0,0.0417,0.0454,0.0516,0.056,0.0576,0.0642,0.0691,0.0708,0.0765,0.0789,0.083,0.0732,0.0697,0.0403,0.0117,-0.0148,-0.0331,-0.0312,-0.0347,-0.0504,-0.0647,-0.0725,-0.0787,-0.034,-0.034,-0.034,-0.034,0,0.048,0.0502,0.0549,0.064,0.0703,0.0782,0.0857,0.0923,0.0954,0.1006,0.106,0.1034,0.0765,0.0522,0.0151,-0.005,-0.0433,-0.0318,-0.0501,-0.0626,-0.0703,-0.0801,-0.0306,-0.0339,-0.0339,-0.0339,-0.034,-0.034,0.0529,0.0572,0.0638,0.0725,0.0805,0.0912,0.099,0.1082,0.1193,0.1286,0.1243,0.1251,0.0884,0.0398,0.0101,-0.0415,-0.0445,-0.0572,-0.0689,-0.0755,-0.0831,-0.0325,-0.0384,-0.0384,-0.0385,-0.0385,-0.0385,0,0.0586,0.0635,0.0717,0.0822,0.0918,0.0951,0.1094,0.1182,0.1328,0.1426,0.1478,0.1315,0.0861,0.0374,-0.0307,-0.0696,-0.0855,-0.0925,-0.1041,-0.1091,-0.0651,-0.0641,-0.0734,-0.0734,-0.0734,-0.0734,-0.0733,-0.0733,0.0618,0.0703,0.0742,0.0903,0.0979,0.1113,0.12,0.1338,0.145,0.1582,0.161,0.1597,0.1242,0.0003,-0.0875,-0.1096,-0.1368,-0.1431,-0.1592,-0.1302,-0.1278,-0.1255,-0.1271,-0.1494,-0.1495,-0.196,-0.1965,-0.1969]}],[{"header":{"parameterUnit":"m.s-1","parameterCategory":2,"la1":30.2991,"la2":30.254,"lo1":-89.0895,"lo2":-89.0444,"dy":0.0017,"dx":0.0017,"nx":28,"ny":28,"refTime":"2023-11-13T09:00:00:Z","depth":"2","parameterNumber":2,"parameterNumberName":"U-component_of_CURRENTS"},"data":[0,0,0,0,0,0,0,0,0,0,0,0,0,0,0,0,0,0,0,0,0,0,0,0,0,0,0,0,0,0,0,0,0,0,0,0,0,0,0,0,0,0,0,0,0,0,0,0,0,0,0,0,0,0,0,0,0,0,0.2752,0.2753,0,0.2769,0.2769,0.2769,0.2768,0.2768,0.2768,0.2767,0.2768,0.2768,0.2769,0,0,0,0,0,0,0,0,0,0,0,0,0,0.2718,0.2719,0.2752,0.2753,0.2753,0.2769,0.2769,0.2769,0.2768,0.2768,0.2767,0.2767,0.2768,0.2768,0.2769,0,0,0,0,0,0,0,0,0,0,0,0,0,0.2732,0.2719,0.2752,0.2756,0.2756,0.2769,0.2769,0.2769,0.2768,0.2768,0.2767,0.2767,0.2768,0.2768,0.2769,0.2772,0,0,0.2769,0.2769,0,0,0,0,0,0,0,0,0.2731,0.2733,0.2755,0.2755,0.2756,0.2768,0.2758,0.277,0.2768,0.2761,0.2767,0.2767,0.2768,0.2768,0.2769,0.2772,0.2772,0.2769,0.2769,0.2769,0.2769,0,0,0,0,0,0,0,0.273,0.2732,0.2757,0.2755,0.2756,0.2756,0.2758,0.276,0.2763,0.2762,0.2762,0.2767,0.2768,0.2769,0.2769,0.2772,0.2769,0.2769,0.2769,0.2769,0.2824,0.2826,0,0,0,0,0,0,0.2732,0.2732,0.2757,0.2758,0.2745,0.2757,0.2759,0.2763,0.2764,0.2765,0.2767,0.2767,0.2769,0.2769,0.2769,0.2813,0.2769,0.2769,0.2769,0.2823,0.2825,0.2826,0,0,0,0,0,0,0.2731,0.2734,0.2756,0.2746,0.2749,0.2758,0.2762,0.2763,0.2776,0.2768,0.2768,0.2781,0.2769,0.2769,0.2786,0.2811,0.2769,0.277,0.2821,0.2823,0.2825,0.2875,0,0,0,0,0,0,0.273,0.2734,0.2739,0.2747,0.275,0.2775,0.2763,0.2764,0.2779,0.278,0.278,0.2779,0.2769,0.2786,0.2786,0.2811,0.277,0.282,0.2822,0.2825,0.2872,0.2879,0.2884,0,0,0,0,0,0.2729,0.2737,0.2739,0.2743,0.2757,0.2776,0.2778,0.2782,0.278,0.2792,0.2793,0.278,0.2802,0.2787,0.2787,0.2812,0.2818,0.2821,0.2824,0.2869,0.2877,0.2884,0,0,0,0,0,0,0.2722,0.2738,0.2741,0.2752,0.2769,0.2776,0.2788,0.2791,0.2802,0.2804,0.2793,0.2793,0.282,0.2811,0.2794,0.2837,0.281,0.2813,0.2844,0.2852,0.2858,0.2867,0.277,0,0,0,0,0,0.2724,0.2737,0.2752,0.2763,0.2774,0.2784,0.2793,0.2799,0.2808,0.2813,0.2812,0.2818,0.2831,0.2836,0.2843,0.2863,0.2872,0.2881,0.2888,0.2893,0.2902,0.2946,0.2957,0.2836,0.2836,0.2836,0,0,0.2724,0.2736,0.2742,0.2763,0.2776,0.2792,0.2789,0.2812,0.2827,0.2811,0.2833,0.284,0.2843,0.2868,0.2879,0.2863,0.2932,0.2897,0.2902,0.2907,0.295,0.2962,0.2972,0.2838,0.2838,0.2837,0,0,0.273,0.2744,0.2757,0.2774,0.28,0.2808,0.2819,0.2836,0.2849,0.2871,0.287,0.2895,0.2904,0.2916,0.2922,0.2969,0.2966,0.2973,0.301,0.3053,0.3063,0.3073,0.3097,0.3108,0.2974,0.2974,0.2975,0,0.2729,0.2747,0.2764,0.2783,0.2802,0.2817,0.2839,0.2853,0.2873,0.2897,0.2885,0.2933,0.2928,0.2974,0.2989,0.2984,0.3004,0.2979,0.3062,0.3071,0.308,0.3103,0.3114,0.2977,0.2977,0.2977,0.2976,0,0.2743,0.2763,0.2776,0.2803,0.2827,0.2851,0.2876,0.2902,0.2918,0.2936,0.299,0.2994,0.3026,0.303,0.302,0.3085,0.3078,0.3066,0.3041,0.3095,0.3116,0.3127,0.2981,0.298,0.2979,0.2979,0,0,0.2724,0.2775,0.2779,0.2796,0.2843,0.2858,0.2904,0.295,0.2985,0.3011,0.3063,0.309,0.3106,0.3115,0.3117,0.3147,0.3216,0.3135,0.3136,0.3158,0.331,0.3286,0.3295,0.3225,0.3227,0.3229,0.3299,0,0.273,0.2765,0.2796,0.2829,0.285,0.2894,0.2931,0.2978,0.3022,0.3072,0.3108,0.3149,0.3135,0.3157,0.3192,0.3215,0.3249,0.3198,0.3256,0.3258,0.3229,0.3309,0.3038,0.3077,0.331,0.3312,0.3313,0,0.2726,0.2754,0.2791,0.2846,0.2861,0.2884,0.2962,0.2999,0.3084,0.3123,0.319,0.3218,0.3281,0.3251,0.3333,0.3306,0.3317,0.3324,0.3327,0.3296,0.3255,0.3063,0.3088,0.3331,0.333,0.3328,0.3327,0,0.269,0.2745,0.2774,0.2793,0.2858,0.2892,0.2932,0.3017,0.3073,0.3164,0.3221,0.3292,0.3341,0.3377,0.3409,0.338,0.3492,0.3448,0.3436,0.3433,0.321,0.3184,0.3507,0.3506,0.3506,0.3506,0.3506,0,0.2675,0.2694,0.2757,0.277,0.2807,0.2869,0.2929,0.2986,0.3095,0.3157,0.3243,0.331,0.3379,0.3451,0.3453,0.3497,0.3534,0.3466,0.3464,0.322,0.3196,0.3415,0.3403,0.3509,0.3508,0.3508,0.3507,0,0.2623,0.2667,0.2695,0.2765,0.2787,0.2812,0.2918,0.2965,0.308,0.3172,0.3208,0.3355,0.3445,0.351,0.3576,0.3559,0.3588,0.3587,0.3296,0.326,0.3482,0.3472,0.3577,0.3577,0.3577,0.3577,0.3577,0,0.2599,0.2611,0.2671,0.2688,0.2719,0.2774,0.2812,0.2933,0.2998,0.3181,0.322,0.337,0.3442,0.3567,0.3562,0.3589,0.3621,0.3343,0.3237,0.3509,0.3496,0.3486,0.3477,0.2949,0.2944,0.294,0.2936,0,0.2551,0.2573,0.2596,0.2631,0.2664,0.2702,0.2776,0.2827,0.2966,0.3066,0.3192,0.3275,0.3412,0.3335,0.3404,0.3372,0.3318,0.3261,0.3628,0.299,0.2927,0.2912,0.292,0.2899,0.2903,0.2905,0.2907,0.2909,0.2508,0.2507,0.2539,0.2562,0.2593,0.2613,0.2614,0.2707,0.2792,0.2885,0.3047,0.3074,0.3125,0.3106,0.3028,0.2973,0.3196,0.3024,0.3032,0.3045,0.2978,0.292,0.2876,0.288,0.2883,0.2885,0.2888,0,0.244,0.2451,0.2471,0.2479,0.2464,0.2521,0.2568,0.2542,0.2576,0.2682,0.2765,0.2602,0.2585,0.2624,0.2498,0.2528,0.2451,0.2408,0.2259,0.2302,0.2338,0.2227,0.1931,0.1927,0.1924,0.1921,0,0,0.2407,0.2387,0.2393,0.2339,0.2348,0.2291,0.2289,0.2272,0.2306,0.2283,0.2278,0.2467,0.2568,0.2207,0.2181,0.2021,0.213,0.1946,0.2725,0.2593,0.2624,0.2723,0.2607,0,0,0,0,0]},{"header":{"parameterUnit":"m.s-1","parameterCategory":2,"la1":30.2991,"la2":30.254,"lo1":-89.0895,"lo2":-89.0444,"dy":0.0017,"dx":0.0017,"nx":28,"ny":28,"refTime":"2023-11-13T09:00:00:Z","depth":"2","parameterNumber":3,"parameterNumberName":"V-component_of_CURRENTS"},"data":[0,0,0,0,0,0,0,0,0,0,0,0,0,0,0,0,0,0,0,0,0,0,0,0,0,0,0,0,0,0,0,0,0,0,0,0,0,0,0,0,0,0,0,0,0,0,0,0,0,0,0,0,0,0,0,0,0,0,0.0052,0.0051,0,-0.0017,-0.0018,-0.0019,-0.0066,-0.0066,-0.0066,-0.0066,-0.0148,-0.015,-0.0152,0,0,0,0,0,0,0,0,0,0,0,0,0,0.0096,0.0096,0.0052,0.0051,0.005,-0.0017,-0.0018,-0.0019,-0.0066,-0.0066,-0.0066,-0.0067,-0.0148,-0.015,-0.0152,0,0,0,0,0,0,0,0,0,0,0,0,0,0.0056,0.0096,0.0052,0.002,0.0016,-0.0017,-0.0018,-0.002,-0.0066,-0.0066,-0.0066,-0.0067,-0.0147,-0.015,-0.0153,-0.0164,0,0,-0.0162,-0.0163,0,0,0,0,0,0,0,0,0.0059,0.0054,0.0025,0.0022,0.0018,-0.0032,-0.0033,-0.0068,-0.0066,-0.0036,-0.0066,-0.0067,-0.011,-0.0116,-0.0129,-0.0168,-0.0171,-0.0162,-0.0164,-0.0165,-0.0166,0,0,0,0,0,0,0,0.0061,0.0057,0.0023,0.0025,0.002,-0.0007,-0.0013,-0.004,-0.0071,-0.0038,-0.0042,-0.0048,-0.0112,-0.0126,-0.0132,-0.0172,-0.0162,-0.0165,-0.0166,-0.0167,-0.0223,-0.0223,0,0,0,0,0,0,0.0075,0.006,0.0026,0.0022,0.0039,-0.0008,-0.0014,-0.0017,-0.007,-0.0079,-0.0047,-0.0049,-0.0121,-0.0128,-0.0135,-0.0139,-0.0165,-0.0168,-0.0169,-0.0224,-0.0223,-0.0223,0,0,0,0,0,0,0.0076,0.0073,0.0029,0.004,0.0032,-0.0008,-0.001,-0.0018,-0.0031,-0.0077,-0.0086,-0.0052,-0.0122,-0.0131,-0.0153,-0.0143,-0.0169,-0.0172,-0.0224,-0.0224,-0.0223,-0.0155,0,0,0,0,0,0,0.0078,0.0074,0.0076,0.0041,0.0032,0.0017,-0.001,-0.0019,-0.0034,-0.0037,-0.0084,-0.0092,-0.0123,-0.0148,-0.0156,-0.0147,-0.0174,-0.0224,-0.0224,-0.0223,-0.0157,-0.0152,-0.0148,0,0,0,0,0,0.008,0.0089,0.0077,0.0073,0.0037,0.0018,0.0011,-0.002,-0.0033,-0.0034,-0.0066,-0.0091,-0.015,-0.015,-0.0159,-0.0151,-0.0225,-0.0224,-0.0223,-0.016,-0.0153,-0.0148,0,0,0,0,0,0,0.0108,0.0084,0.007,0.0071,0.0049,0.0011,0.0008,-0.0014,-0.004,-0.0043,-0.0087,-0.0097,-0.0115,-0.0142,-0.0141,-0.0167,-0.0192,-0.0193,-0.014,-0.0134,-0.013,-0.0111,-0.0176,0,0,0,0,0,0.0117,0.0118,0.0088,0.0088,0.0082,0.0045,0.0034,0.0014,-0.0014,-0.0026,-0.0059,-0.0093,-0.012,-0.0133,-0.0163,-0.0175,-0.0204,-0.0176,-0.0171,-0.0167,-0.0158,-0.0196,-0.0193,-0.0221,-0.0221,-0.0221,0,0,0.0127,0.0114,0.0114,0.0095,0.0075,0.0075,0.0037,0.0027,0.0026,-0.003,-0.0041,-0.0078,-0.012,-0.0135,-0.0145,-0.0155,-0.0174,-0.0166,-0.0162,-0.0156,-0.0195,-0.0192,-0.019,-0.0221,-0.0221,-0.0221,0,0,0.0153,0.0139,0.015,0.0139,0.0118,0.0099,0.01,0.0066,0.0051,0.0033,-0.0006,-0.0035,-0.0077,-0.0103,-0.0122,-0.0108,-0.0149,-0.0117,-0.0075,-0.0111,-0.0109,-0.0107,-0.0137,-0.0139,-0.0112,-0.0112,-0.0112,0,0.0167,0.0177,0.015,0.0159,0.0157,0.0116,0.013,0.011,0.0072,0.0067,0.0039,-0.0021,-0.0062,-0.0074,-0.0073,-0.0096,-0.0121,-0.0091,-0.0104,-0.0103,-0.0102,-0.0134,-0.0137,-0.0109,-0.0109,-0.0109,-0.011,0,0.0203,0.0209,0.0216,0.0217,0.0211,0.0216,0.019,0.0183,0.0157,0.0132,0.0107,0.0047,0.0014,-0.0007,-0.0038,-0.0049,-0.0068,-0.0094,-0.0115,-0.0095,-0.013,-0.0134,-0.0104,-0.0105,-0.0106,-0.0107,0,0,0.024,0.0242,0.0245,0.0259,0.0244,0.0249,0.0253,0.0247,0.0259,0.0206,0.021,0.0146,0.011,0.0086,0.004,0.0004,-0.0023,-0.0037,-0.004,-0.0059,-0.0096,-0.011,-0.0116,-0.0049,-0.0049,-0.005,-0.012,0,0.0277,0.0313,0.0299,0.0336,0.0355,0.0328,0.0339,0.0328,0.0305,0.0298,0.0233,0.0212,0.0147,0.0132,0.0087,0.0007,-0.0031,-0.0001,-0.0119,-0.0122,-0.0131,-0.012,-0.0085,-0.0145,-0.0124,-0.0125,-0.0126,0,0.032,0.034,0.0384,0.0406,0.0413,0.0426,0.0447,0.0452,0.043,0.041,0.0375,0.0318,0.0263,0.02,0.0077,0.0101,0.0012,-0.0058,-0.0063,-0.0101,-0.0143,-0.0163,-0.0153,-0.0133,-0.0132,-0.0132,-0.0131,0,0.0374,0.0401,0.0443,0.045,0.0467,0.0484,0.0493,0.0488,0.0512,0.0484,0.0493,0.0406,0.0372,0.025,0.0102,0.0089,-0.0035,-0.0075,-0.0171,-0.0173,-0.0179,-0.018,-0.0163,-0.0163,-0.0163,-0.0163,-0.0162,0,0.0423,0.0457,0.0473,0.0499,0.0557,0.0544,0.0602,0.0597,0.0607,0.0649,0.0559,0.057,0.0382,0.0287,0.0139,-0.0019,-0.001,-0.0158,-0.0191,-0.0154,-0.0153,-0.0173,-0.0173,-0.0165,-0.0165,-0.0164,-0.0164,0,0.0474,0.0483,0.0538,0.0568,0.0587,0.063,0.0684,0.0724,0.0721,0.0774,0.077,0.0692,0.057,0.0382,0.0182,0.004,-0.012,-0.0181,-0.0122,-0.0146,-0.0245,-0.0241,-0.0297,-0.0298,-0.0299,-0.03,-0.0301,0,0.0501,0.0537,0.0598,0.064,0.0656,0.0718,0.0767,0.0784,0.0839,0.0859,0.0897,0.0794,0.0751,0.0461,0.0188,-0.0068,-0.0111,-0.0216,-0.0244,-0.0232,-0.0258,-0.0253,-0.0248,-0.0227,-0.0227,-0.0227,-0.0227,0,0.0559,0.058,0.0626,0.0714,0.0774,0.0852,0.0924,0.0987,0.1018,0.1061,0.1102,0.1068,0.0802,0.0554,0.0194,0.0018,-0.0175,-0.0224,-0.0226,-0.0195,-0.017,-0.0195,-0.0191,-0.0226,-0.0226,-0.0226,-0.0226,-0.0226,0.0603,0.0644,0.0708,0.0792,0.087,0.0974,0.1048,0.1133,0.1233,0.13,0.1258,0.1208,0.0926,0.0477,0.017,-0.0169,-0.0158,-0.0283,-0.0281,-0.0279,-0.0255,-0.0233,-0.0296,-0.0297,-0.0297,-0.0297,-0.0298,0,0.0656,0.0702,0.0781,0.0882,0.0975,0.1008,0.1147,0.1222,0.1348,0.1395,0.1422,0.1151,0.0876,0.0539,0.0051,-0.0234,-0.0259,-0.0335,-0.0297,-0.0294,-0.0292,-0.0268,-0.0314,-0.0315,-0.0316,-0.0317,0,0,0.0685,0.0766,0.0803,0.0957,0.103,0.1158,0.1241,0.1352,0.142,0.1473,0.1438,0.1377,0.0978,0.0623,0.0242,-0.004,-0.0109,-0.0102,-0.0054,0.004,0.0045,-0.0225,-0.018,0,0,0,0,0]}],[{"header":{"parameterUnit":"m.s-1","parameterCategory":2,"la1":30.2991,"la2":30.254,"lo1":-89.0895,"lo2":-89.0444,"dy":0.0017,"dx":0.0017,"nx":28,"ny":28,"refTime":"2023-11-13T09:00:00:Z","depth":"4","parameterNumber":2,"parameterNumberName":"U-component_of_CURRENTS"},"data":[0,0,0,0,0,0,0,0,0,0,0,0,0,0,0,0,0,0,0,0,0,0,0,0,0,0,0,0,0,0,0,0,0,0,0,0,0,0,0,0,0,0,0,0,0,0,0,0,0,0,0,0,0,0,0,0,0,0,0.1803,0.1803,0,0.1864,0.1865,0.1866,0.1921,0.1922,0.1923,0.1924,0.2001,0.2002,0.2003,0,0,0,0,0,0,0,0,0,0,0,0,0,0.1725,0.1726,0.1802,0.1803,0.1804,0.1864,0.1865,0.1866,0.1921,0.1922,0.1923,0.1924,0.2,0.2002,0.2003,0,0,0,0,0,0,0,0,0,0,0,0,0,0.1769,0.1727,0.1802,0.1841,0.1845,0.1864,0.1865,0.1866,0.1921,0.1922,0.1924,0.1925,0.2,0.2002,0.2003,0.199,0,0,0.2009,0.201,0,0,0,0,0,0,0,0,0.1766,0.1771,0.1834,0.1838,0.1843,0.1888,0.1866,0.1909,0.1921,0.189,0.1924,0.1925,0.1965,0.1969,0.1976,0.1994,0.1997,0.2009,0.2011,0.2011,0.2012,0,0,0,0,0,0,0,0.1763,0.1769,0.1825,0.1835,0.184,0.1853,0.186,0.1874,0.1919,0.1893,0.1898,0.1907,0.1967,0.1974,0.1978,0.1998,0.2009,0.2011,0.2012,0.2013,0.2127,0.2129,0,0,0,0,0,0,0.1758,0.1766,0.1823,0.1827,0.1809,0.1853,0.1861,0.1871,0.1918,0.1927,0.1906,0.1909,0.197,0.1976,0.1981,0.2073,0.2011,0.2013,0.2014,0.2125,0.2128,0.213,0,0,0,0,0,0,0.1756,0.1762,0.1821,0.1799,0.1808,0.1853,0.1863,0.1871,0.192,0.1928,0.1937,0.1951,0.1971,0.1978,0.2032,0.2073,0.2014,0.2016,0.2123,0.2126,0.2129,0.2191,0,0,0,0,0,0,0.1754,0.1761,0.1785,0.1799,0.1809,0.1859,0.1863,0.1872,0.1922,0.1928,0.1969,0.1975,0.1972,0.2029,0.2034,0.2074,0.2017,0.2121,0.2124,0.2128,0.2186,0.2195,0.2203,0,0,0,0,0,0.1751,0.1771,0.1786,0.1794,0.1834,0.186,0.1867,0.1901,0.1924,0.1949,0.1982,0.1976,0.2055,0.2032,0.2037,0.2079,0.2119,0.2123,0.2127,0.2182,0.2193,0.2203,0,0,0,0,0,0,0.1751,0.1779,0.1795,0.1825,0.1855,0.1871,0.1905,0.1924,0.1969,0.199,0.1997,0.2005,0.2068,0.2066,0.204,0.2124,0.2088,0.2093,0.2128,0.2138,0.2146,0.2148,0.2019,0,0,0,0,0,0.176,0.1788,0.1811,0.1842,0.186,0.189,0.1914,0.1937,0.1969,0.1992,0.202,0.2052,0.2081,0.2105,0.2127,0.217,0.2172,0.2202,0.221,0.2217,0.2224,0.2264,0.2276,0.2144,0.2143,0.2143,0,0,0.177,0.1791,0.1808,0.1845,0.1874,0.1901,0.1909,0.1957,0.199,0.1992,0.2061,0.2085,0.21,0.2151,0.2179,0.216,0.2257,0.2223,0.2229,0.2231,0.227,0.2282,0.2294,0.2146,0.2146,0.2145,0,0,0.1788,0.1824,0.185,0.1876,0.1925,0.194,0.1963,0.2004,0.2041,0.2097,0.2111,0.2161,0.2206,0.2224,0.2237,0.2305,0.2301,0.2322,0.2367,0.2406,0.2417,0.2427,0.2447,0.2458,0.2325,0.2325,0.2325,0,0.1804,0.1834,0.1863,0.1892,0.1924,0.1961,0.1996,0.2029,0.2086,0.2122,0.2132,0.2223,0.2237,0.2295,0.2322,0.2324,0.2342,0.2325,0.2416,0.2426,0.2435,0.2453,0.2464,0.2329,0.2328,0.2328,0.2328,0,0.1825,0.1867,0.1889,0.1936,0.1973,0.2013,0.2055,0.2108,0.2158,0.2188,0.2277,0.2302,0.2356,0.2372,0.2369,0.2445,0.2437,0.2422,0.2387,0.2452,0.2467,0.2477,0.2334,0.2333,0.2332,0.2331,0,0,0.181,0.1889,0.1901,0.1933,0.2005,0.2028,0.2101,0.2166,0.222,0.2285,0.2356,0.2415,0.2445,0.2462,0.2475,0.2508,0.2584,0.2501,0.2502,0.2515,0.2672,0.2514,0.251,0.2594,0.2596,0.2598,0.2657,0,0.1824,0.1881,0.1923,0.1987,0.2019,0.2085,0.2142,0.221,0.2279,0.2353,0.2406,0.2475,0.2474,0.2516,0.2554,0.258,0.2616,0.2569,0.2613,0.2614,0.246,0.2518,0.2605,0.2665,0.2667,0.2669,0.267,0,0.1821,0.1865,0.1932,0.2014,0.2038,0.2086,0.2194,0.2251,0.2358,0.2416,0.2503,0.2546,0.2625,0.2606,0.2692,0.2669,0.2684,0.2691,0.2693,0.2529,0.2474,0.2588,0.2689,0.2688,0.2686,0.2685,0.2684,0,0.1776,0.1865,0.1922,0.1952,0.205,0.2109,0.2172,0.2282,0.2347,0.2471,0.2534,0.2624,0.2687,0.2727,0.2763,0.2743,0.2838,0.2803,0.2672,0.2661,0.2758,0.2747,0.2861,0.2861,0.2861,0.286,0.286,0,0.1749,0.1797,0.1912,0.1939,0.2012,0.2097,0.2191,0.2268,0.2394,0.246,0.257,0.2628,0.2726,0.2789,0.2798,0.2768,0.2872,0.2687,0.2669,0.2782,0.2773,0.2765,0.2753,0.2863,0.2862,0.2862,0.2861,0,0.1681,0.176,0.1826,0.1948,0.1992,0.2047,0.2194,0.2251,0.2387,0.2482,0.253,0.2667,0.2737,0.2808,0.2874,0.2797,0.2791,0.2756,0.2883,0.287,0.2577,0.2568,0.2598,0.2593,0.2589,0.2585,0.2582,0,0.1646,0.1678,0.1816,0.186,0.1925,0.2025,0.2086,0.2232,0.2293,0.2475,0.2499,0.2634,0.27,0.2665,0.2752,0.2759,0.2729,0.2703,0.2623,0.2572,0.2553,0.255,0.2547,0.2575,0.2574,0.2573,0.2572,0,0.1577,0.1647,0.1702,0.1795,0.1871,0.1937,0.2041,0.2072,0.2225,0.2369,0.2406,0.2443,0.2516,0.2555,0.2591,0.2588,0.2701,0.2657,0.2665,0.2589,0.2545,0.2529,0.2531,0.2557,0.2559,0.2561,0.2562,0,0.1532,0.1553,0.1639,0.1704,0.1791,0.1819,0.1888,0.1948,0.2023,0.2214,0.222,0.2354,0.2484,0.2469,0.2499,0.249,0.2442,0.2345,0.2368,0.2386,0.2289,0.22,0.2096,0,0,0,0,0,0.1472,0.1483,0.1539,0.1592,0.1671,0.1722,0.1838,0.191,0.2054,0.2022,0.2116,0.2167,0.2206,0.2283,0.2231,0.2415,0.2461,0.2344,0.2364,0.2475,0.2492,0.2398,0,0,0,0,0,0,0.1431,0.148,0.1496,0.1483,0.1501,0.1566,0.1634,0.1736,0.1729,0.1884,0.1919,0.2035,0.2112,0.2212,0.2188,0.2211,0.2178,0.2435,0.2429,0.2466,0.2481,0.2495,0.2404,0,0,0,0,0]},{"header":{"parameterUnit":"m.s-1","parameterCategory":2,"la1":30.2991,"la2":30.254,"lo1":-89.0895,"lo2":-89.0444,"dy":0.0017,"dx":0.0017,"nx":28,"ny":28,"refTime":"2023-11-13T09:00:00:Z","depth":"4","parameterNumber":3,"parameterNumberName":"V-component_of_CURRENTS"},"data":[0,0,0,0,0,0,0,0,0,0,0,0,0,0,0,0,0,0,0,0,0,0,0,0,0,0,0,0,0,0,0,0,0,0,0,0,0,0,0,0,0,0,0,0,0,0,0,0,0,0,0,0,0,0,0,0,0,0,0.0144,0.0144,0,0.0098,0.0097,0.0097,0.0068,0.0068,0.0068,0.0068,0.0012,0.001,0.0009,0,0,0,0,0,0,0,0,0,0,0,0,0,0.0171,0.017,0.0144,0.0144,0.0143,0.0098,0.0097,0.0097,0.0068,0.0068,0.0068,0.0068,0.0012,0.0011,0.0009,0,0,0,0,0,0,0,0,0,0,0,0,0,0.0145,0.017,0.0144,0.0124,0.0122,0.0098,0.0097,0.0096,0.0068,0.0068,0.0068,0.0068,0.0013,0.0011,0.0009,-0.0002,0,0,0.0002,0.0001,0,0,0,0,0,0,0,0,0.0146,0.0144,0.0128,0.0125,0.0123,0.0089,0.0086,0.0063,0.0068,0.0088,0.0068,0.0068,0.0037,0.0033,0.0024,-0.0005,-0.0007,0.0002,0.0001,-0.0,-0.0001,0,0,0,0,0,0,0,0.0148,0.0145,0.0125,0.0127,0.0124,0.0105,0.0101,0.0081,0.0063,0.0086,0.0084,0.008,0.0036,0.0026,0.0022,-0.0008,0.0002,-0.0,-0.0001,-0.0002,-0.0046,-0.0046,0,0,0,0,0,0,0.0157,0.0147,0.0126,0.0124,0.0135,0.0105,0.0101,0.01,0.0063,0.0058,0.0081,0.0079,0.003,0.0025,0.002,0.0019,-0.0,-0.0002,-0.0004,-0.0046,-0.0046,-0.0046,0,0,0,0,0,0,0.0158,0.0156,0.0128,0.0135,0.013,0.0105,0.0104,0.0099,0.0092,0.0059,0.0054,0.0079,0.0029,0.0023,0.0008,0.0016,-0.0003,-0.0005,-0.0046,-0.0046,-0.0046,0.0008,0,0,0,0,0,0,0.0159,0.0157,0.0161,0.0136,0.013,0.0121,0.0104,0.0098,0.009,0.0088,0.0056,0.0051,0.0029,0.0012,0.0006,0.0013,-0.0007,-0.0046,-0.0046,-0.0046,0.0006,0.001,0.0013,0,0,0,0,0,0.016,0.0168,0.0162,0.0159,0.0136,0.0122,0.0117,0.0098,0.009,0.009,0.0069,0.0052,0.0009,0.001,0.0004,0.001,-0.0046,-0.0046,-0.0046,0.0004,0.0009,0.0013,0,0,0,0,0,0,0.018,0.0165,0.0158,0.016,0.0145,0.0117,0.0117,0.0103,0.0086,0.0085,0.0054,0.0047,0.0036,0.0015,0.0016,-0.0003,-0.0022,-0.0023,0.0018,0.0022,0.0026,0.0041,-0.0009,0,0,0,0,0,0.0188,0.0191,0.017,0.0173,0.0168,0.0144,0.0136,0.0123,0.0104,0.0096,0.0073,0.005,0.0031,0.0021,-0.0,-0.0009,-0.0035,-0.0011,-0.0007,-0.0004,0.0004,-0.0031,-0.0029,-0.0045,-0.0045,-0.0045,0,0,0.0196,0.0189,0.019,0.0178,0.0165,0.0166,0.0139,0.0133,0.0134,0.0093,0.0088,0.0061,0.0031,0.0021,0.0014,0.0005,-0.0013,-0.0003,-0.0,0.0005,-0.003,-0.0029,-0.0027,-0.0044,-0.0045,-0.0045,0,0,0.0216,0.0209,0.0219,0.0212,0.0199,0.0185,0.0186,0.0162,0.0153,0.0141,0.0115,0.0093,0.0064,0.0044,0.003,0.004,0.0007,0.0033,0.0065,0.0032,0.0033,0.0034,0.0004,0.0002,0.0036,0.0036,0.0036,0,0.0227,0.0236,0.0219,0.0226,0.0227,0.0198,0.021,0.0196,0.017,0.0167,0.0148,0.0105,0.0074,0.0066,0.0067,0.0049,0.0026,0.0054,0.0038,0.0038,0.0038,0.0007,0.0003,0.0039,0.0038,0.0038,0.0038,0,0.0253,0.0261,0.0267,0.027,0.0268,0.0273,0.0256,0.0252,0.0235,0.0217,0.0201,0.0156,0.0133,0.0116,0.0094,0.0082,0.0066,0.0046,0.003,0.0043,0.0009,0.0005,0.0042,0.0041,0.0041,0.004,0,0,0.0277,0.0284,0.0288,0.0302,0.0294,0.0299,0.0305,0.0302,0.0313,0.0274,0.0279,0.0232,0.0205,0.0188,0.0153,0.0121,0.0093,0.0089,0.0086,0.0066,0.0024,0.0013,0.0006,0.0073,0.0072,0.0072,0.0002,0,0.0303,0.0332,0.0327,0.0359,0.0374,0.036,0.037,0.0364,0.0349,0.0344,0.0295,0.0282,0.0234,0.0225,0.0185,0.0119,0.0084,0.0115,0.001,0.0007,-0.0,0.0002,0.0071,-0.0002,-0.0003,-0.0004,-0.0004,0,0.0331,0.0349,0.0386,0.0412,0.0418,0.0433,0.0454,0.046,0.0445,0.0432,0.0406,0.0365,0.0319,0.0272,0.0166,0.019,0.0115,0.0056,0.0051,0.0021,-0.0013,-0.0019,-0.0013,-0.0012,-0.0012,-0.0011,-0.001,0,0.0364,0.0392,0.0429,0.0437,0.0458,0.0477,0.049,0.0489,0.051,0.0492,0.0498,0.043,0.0401,0.0302,0.0178,0.0173,0.0055,0.003,-0.0052,-0.0054,-0.0045,-0.0046,-0.0047,-0.0047,-0.0047,-0.0047,-0.0047,0,0.0393,0.0423,0.0451,0.0472,0.0524,0.0522,0.0573,0.0574,0.0585,0.0615,0.055,0.055,0.0407,0.0322,0.0202,0.0066,0.007,-0.0043,-0.0072,-0.0022,-0.0019,-0.0049,-0.0048,-0.0049,-0.0049,-0.0048,-0.0048,0,0.0418,0.0435,0.0484,0.0522,0.0543,0.0581,0.0639,0.067,0.0673,0.071,0.0709,0.0639,0.0527,0.0378,0.021,0.0104,-0.0031,-0.0082,-0.001,-0.0034,-0.0124,-0.012,-0.0178,-0.0179,-0.0179,-0.018,-0.0181,0,0.0431,0.046,0.0528,0.0566,0.0588,0.0648,0.0691,0.0717,0.0756,0.0766,0.0785,0.0695,0.0626,0.0393,0.0223,-0.0006,-0.0045,-0.0121,-0.0132,-0.0115,-0.0137,-0.0132,-0.0126,-0.0182,-0.0182,-0.0182,-0.0183,0,0.0458,0.0486,0.0527,0.0608,0.0666,0.0736,0.0799,0.0835,0.0865,0.087,0.0849,0.0725,0.0597,0.0403,0.0223,0.0057,-0.0075,-0.013,-0.013,-0.0141,-0.0122,-0.0141,-0.0135,-0.0185,-0.0185,-0.0185,-0.0185,0,0.0481,0.0513,0.0573,0.0642,0.0723,0.0797,0.0829,0.0872,0.091,0.0914,0.0905,0.0764,0.0682,0.0436,0.0274,0.0106,0.0054,-0.0013,-0.002,-0.0019,0.004,0.0089,0.007,0,0,0,0,0,0.0497,0.0535,0.0601,0.0679,0.0758,0.0808,0.0891,0.0915,0.0947,0.0941,0.0925,0.0807,0.0565,0.0468,0.0298,0.0241,0.0015,0.0034,-0.0069,-0.0201,-0.0198,-0.0158,0,0,0,0,0,0,0.0509,0.057,0.06,0.07,0.0756,0.0849,0.0904,0.0925,0.0925,0.0928,0.0812,0.075,0.0524,0.0663,0.0292,0.0241,0.0148,-0.0074,-0.0079,-0.0203,-0.02,-0.0197,-0.0155,0,0,0,0,0]}]]